Regional Weather Roundup
Issued by NWS

Home | Current Version | Previous Version | Text Only | Print | Product List | Glossary On
Versions: 1 2 3 4 5 6 7 8 9 10 11 12 13 14 15 16 17 18 19 20 21 22 23 24 25 26 27 28 29 30 31 32 33 34 35 36 37 38 39 40 41 42 43 44 45 46 47 48 49 50
000
ASUS44 KLIX 061712
RWRLA
LOUISIANA WEATHER ROUNDUP
NATIONAL WEATHER SERVICE NEW ORLEANS LA
1200 PM CDT MON JUL 06 2015

NOTE: "FAIR" INDICATES FEW OR NO CLOUDS BELOW 12,000 FEET WITH NO
      SIGNIFICANT WEATHER AND/OR OBSTRUCTIONS TO VISIBILITY.
      SKY/WX - SKY CONDITION AND SIGNIFICANT WEATHER.
      TMP - AIR TEMPERATURE.    DP   - DEWPOINT TEMPERATURE.
      RH  - RELATIVE HUMIDITY.  PRES - PRESSURE.
      HX  - HEAT INDEX.         WCI  - WIND CHILL INDEX.

*  THESE STATIONS ARE NOT NWS OR FAA STATIONS AND ARE NOT UNDER
   NWS QUALITY CONTROL.

LAZ040-048-061>063-065-066-069-061800-
SOUTHEAST LOUISIANA

CITY           SKY/WX    TMP DP  RH WIND       PRES   REMARKS
N.O. AUDUBON     N/A     91  79  67 MISG        N/A  HX 107
N.O. INTL ARPT CLOUDY    87  74  64 S10       30.17S HX  95
N.O. LAKEFRONT CLOUDY    89  75  63 S7        30.17F HX  99
N.O. DOWNTOWN* FAIR      90  75  62 S7        30.17F HX 100
RESERVE*       CLOUDY    89  76  64 CALM      30.16F HX 101
SLIDELL        PTSUNNY   86  77  74 S6        30.17F HX  97
BATON ROUGE    PTSUNNY   87  76  69 S12       30.15F HX  97
BOOTHVILLE     MOSUNNY   87  75  67 VRB5      30.18F HX  96
BELLE CHASSE   CLOUDY    87  74  64 VRB6      30.16F HX  95
BOGALUSA*        N/A     87  74  65 S8        30.19F HX  95
GALLIANO*      MOSUNNY   90  75  60 SW6       30.17S HX 100
NEW ROADS*     PTSUNNY  N/A N/A N/A S7        30.15S
GONZALES*      FAIR      87  77  72 S6        30.15F HX  99
HAMMOND*       PTSUNNY   88  75  66 SE8       30.18F HX  97
HOUMA*         PTSUNNY   88  77  70 SW9       30.16F HX 100
PORT FOURCHON* SUNNY     88  77  70 S9        30.17F HX 100

$$

LAZ041-044-053-054-061800-
SOUTHWEST LOUISIANA

CITY           SKY/WX    TMP DP  RH WIND       PRES   REMARKS
LAKE CHARLES   MOSUNNY   89  74  60 S12       30.13S HX  98
LAFAYETTE      MOSUNNY   90  74  59 S12       30.14F HX  99
PATTERSON      MOSUNNY   88  75  66 S8        30.17S HX  97
SALT POINT       N/A     88  77  69 VRB3      30.14S HX 100
NEW IBERIA     NOT AVBL
CHENAULT AIRPK PTSUNNY   90  77  66 S12G20    30.13F HX 102

$$

LAZ027-028-061800-
CENTRAL LOUISIANA

CITY           SKY/WX    TMP DP  RH WIND       PRES   REMARKS
FORT POLK      PTSUNNY   88  75  66 S15       30.12S HX  97
ALEXANDRIA INT SUNNY     88  75  65 S10       30.11F HX  97
ALEXANDRIA     SUNNY     91  75  59 SW9       30.13F HX 101

$$

LAZ001-002-061800-
NORTHWEST LOUISIANA

CITY           SKY/WX    TMP DP  RH WIND       PRES   REMARKS
SHREVEPORT     PTSUNNY   89  74  60 SW13G22   30.08F HX  98
BARKSDALE AFB  MOSUNNY   88  75  63 S14       30.08F HX  98
DTN SHREVEPORT PTSUNNY   87  73  62 S13G22    30.09F

$$

LAZ014-016-061800-
NORTHEAST LOUISIANA

CITY           SKY/WX    TMP DP  RH WIND       PRES   REMARKS
MONROE         MOSUNNY   86  77  74 SW12      30.13S HX  97
TALLULAH       CLOUDY    85  76  74 S6        30.14F

$$




USA.gov is the U.S. government's official web portal to all federal, state and local government web resources and services.